7 * 24
多渠道服务支持
STARLINK-2396是美国SpaceX公司星链(Starlink)星座中的一颗低轨通信卫星,于2021年3月11日发射入轨。作为星链星座组网阶段的一员,它属于第一代星链卫星,旨在为全球提供高速低延迟宽带互联网服务,尤其服务偏远地区和网络基础设施匮乏区域。该卫星运行在近地轨道,通过星链星座协同实现全球无缝覆盖,是SpaceX构建大规模卫星互联网星座计划的重要组成部分,推动了全球卫星通信的发展,同时也引发了太空碎片与天文观测相关讨论。
美国
(US)
| 数据来源 | 国际轨道数据 |
| 星历时间: | 2026-09-11T07:52:17+0800 14小时前 查看轨道信息 |
| 半长轴: | 6848.794km |
| 偏心率: | 0.0001564 |
| 轨道倾角: | 53.158° |
| 近地点辐角 | 98.796° |
| 升交点赤经 | 100.327° |
| 平近点角 | 261.322° |
| 近地点: | 469.585km |
| 远地点: | 471.729km |
| 周期: | 94.011分钟 |
| 每日圈数: | 15.31728 |